DW1024 Weather Reports


Display with metric or nautical units.
time (UTC)temp
F
wind
direction
speed
MPH
gust
MPH
rain 1hr
in
rain 24hr
in
rain mn
in
humidity
%
barometer
mb
20260510225306 55 265 1.0 4.0 0.01 0.42 0.00 94 1008.4
20260510223803 55 235 1.0 3.0 0.02 0.42 0.00 94 1008.4
20260510222305 55 293 2.0 5.0 0.02 0.42 0.00 94 1008.6
20260510220807 55 254 0.0 3.0 0.02 0.42 0.00 93 1008.6
20260510215306 55 200 2.0 6.0 0.01 0.41 0.41 93 1008.7
20260510213804 55 276 2.0 6.0 0.00 0.40 0.40 93 1008.8
20260510212306 55 292 1.0 3.0 0.01 0.40 0.40 93 1008.5
20260510210802 55 236 0.0 2.0 0.03 0.40 0.40 93 1008.4
20260510205306 55 296 0.0 4.0 0.06 0.40 0.40 92 1008.4
20260510203804 55 285 2.0 7.0 0.12 0.40 0.39 92 1008.4
20260510202305 56 200 2.0 7.0 0.20 0.39 0.39 92 1008.5
20260510200806 56 279 1.0 3.0 0.22 0.37 0.37 91 1008.4
20260510195306 56 271 1.0 3.0 0.24 0.34 0.33 91 1008.6
20260510192308 56 130 4.0 10.0 0.18 0.19 0.19 89 1008.8
20260510190801 56 126 3.0 13.0 0.15 0.15 0.14 88 1008.9
20260510185301 57 279 4.0 10.0 0.10 0.10 0.09 86 1008.5
20260510183800 59 274 4.0 9.0 0.08 0.08 0.08 83 1008.3
20260510182301 61 277 5.0 17.0 0.01 0.01 0.01 77 1008.3
20260510180800 67 282 5.0 18.0 0.00 0.00 0.00 63 1007.7
20260510175300 70 42 1.0 4.0 0.00 0.00 0.00 47 1006.9
20260510173800 70 31 2.0 5.0 0.00 0.00 0.00 47 1006.8
20260510172300 70 27 3.0 9.0 0.00 0.00 0.00 47 1006.6
20260510170802 70 53 3.0 9.0 0.00 0.00 0.00 47 1006.6
20260510165259 71 66 3.0 8.0 0.00 0.00 0.00 46 1006.8
20260510163756 71 57 3.0 11.0 0.00 0.00 0.00 46 1007.0
20260510160756 71 71 4.0 8.0 0.00 0.00 0.00 45 1007.3
20260510155255 73 138 3.0 9.0 0.00 0.00 0.00 44 1007.3
20260510153752 71 92 3.0 10.0 0.00 0.00 0.00 46 1007.7
20260510152252 72 92 4.0 10.0 0.00 0.00 0.00 45 1007.8
20260510150752 73 90 3.0 10.0 0.00 0.00 0.00 46 1008.0
20260510145252 73 28 4.0 11.0 0.00 0.00 0.00 44 1008.0
20260510143756 75 64 4.0 11.0 0.00 0.00 0.00 43 1008.3
20260510142250 74 156 2.0 9.0 0.00 0.00 0.00 45 1008.3
20260510140752 74 30 2.0 7.0 0.00 0.00 0.00 47 1008.5
20260510135251 73 264 2.0 6.0 0.00 0.00 0.00 47 1008.7
20260510133752 74 87 1.0 4.0 0.00 0.00 0.00 46 1008.8
20260510132255 74 223 3.0 9.0 0.00 0.00 0.00 44 1009.0
20260510130753 75 36 2.0 9.0 0.00 0.00 0.00 43 1009.0
20260510125252 76 251 2.0 5.0 0.00 0.00 0.00 44 1009.2
20260510123753 76 274 2.0 7.0 0.00 0.00 0.00 41 1009.3
20260510122252 76 5 2.0 6.0 0.00 0.00 0.00 42 1009.5
20260510115249 75 169 3.0 11.0 0.00 0.00 0.00 44 1010.0
20260510112253 74 51 4.0 11.0 0.00 0.00 0.00 46 1010.4
20260510110750 75 126 2.0 8.0 0.00 0.00 0.00 48 1010.5
20260510105249 75 15 2.0 6.0 0.00 0.00 0.00 47 1010.8
20260510103748 74 68 2.0 8.0 0.00 0.00 0.00 47 1011.0
20260510102256 72 13 3.0 10.0 0.00 0.00 0.00 48 1011.2
20260510100748 72 27 3.0 10.0 0.00 0.00 0.00 50 1011.3
20260510093748 69 21 2.0 8.0 0.00 0.00 0.00 52 1011.6
20260510092245 70 284 2.0 6.0 0.00 0.00 0.00 51 1011.7
20260510090744 69 31 2.0 7.0 0.00 0.00 0.00 52 1011.9
20260510083745 67 32 2.0 9.0 0.00 0.00 0.00 57 1012.0
20260510082244 67 259 1.0 5.0 0.00 0.00 0.00 59 1012.0
20260510075242 66 5 3.0 10.0 0.00 0.00 0.00 61 1012.4
20260510073744 64 188 1.0 4.0 0.00 0.00 0.00 63 1012.6
20260510072532 64 286 1.0 5.0 0.00 0.00 0.00 66 1012.7
20260510071907 61 26 2.0 9.0 0.00 0.00 0.00 69 1012.7
20260510065240 59 75 2.0 5.0 0.00 0.00 0.00 73 1012.8
20260510063741 58 97 1.0 5.0 0.00 0.00 0.00 76 1012.9
20260510062243 56 287 1.0 3.0 0.00 0.00 0.00 80 1013.1
20260510053741 47 23 1.0 4.0 0.00 0.00 0.00 93 1013.3
20260510052236 46 64 0.0 0.0 0.00 0.00 0.00 92 1013.4
20260510050735 45 64 0.0 0.0 0.00 0.00 0.00 92 1013.3
20260510045239 44 64 0.0 0.0 0.00 0.00 0.00 91 1013.4
20260510043736 44 64 0.0 0.0 0.00 0.00 0.00 90 1013.5
20260510035233 43 64 0.0 1.0 0.00 0.00 0.00 89 1013.7
20260510033730 43 64 0.0 0.0 0.00 0.00 0.00 88 1013.7
20260510030728 43 64 0.0 0.0 0.00 0.00 0.00 86 1013.7
20260510025228 43 64 0.0 0.0 0.00 0.00 0.00 86 1013.8
20260510023725 44 64 0.0 0.0 0.00 0.00 0.00 86 1014.0
20260510022225 44 64 0.0 0.0 0.00 0.00 0.00 85 1013.9
20260510020725 44 64 0.0 0.0 0.00 0.00 0.00 84 1014.2
20260510013722 45 64 0.0 0.0 0.00 0.00 0.00 83 1014.2
20260510012221 45 64 0.0 0.0 0.00 0.00 0.00 83 1014.3
20260510010723 45 64 0.0 0.0 0.00 0.00 0.00 82 1014.4
20260510005221 46 64 0.0 0.0 0.00 0.00 0.00 82 1014.5
20260510003724 46 64 0.0 0.0 0.00 0.00 0.00 82 1014.5
20260510002221 47 64 0.0 0.0 0.00 0.00 0.00 81 1014.6
20260510000722 47 64 0.0 0.0 0.00 0.00 0.00 81 1014.8
20260509235221 48 64 0.0 0.0 0.00 0.00 0.00 80 1014.9
20260509233718 48 64 0.0 0.0 0.00 0.00 0.00 79 1015.1
20260509232218 49 64 0.0 0.0 0.00 0.00 0.00 79 1015.2
20260509230716 49 64 0.0 0.0 0.00 0.00 0.00 78 1015.3